owner,sensor,date,latitude,longitude,vertical_datum,wind_speed,wind_to_direction,wind_speed_of_gust,qcFlag 
TABS,ioos:station:wmo:42045:1,2011-09-01T00:00:00Z,26.2168,-96.4998,4.0,3.423171045,74.58301759,4.1,'11111222,11111222,11111222' 
TABS,ioos:station:wmo:42045:1,2011-09-01T00:30:00Z,26.2168,-96.4998,4.0,4.867730477,79.10518617,5.76,'11111222,11111222,11111222' 
TABS,ioos:station:wmo:42045:1,2011-09-01T01:00:00Z,26.2168,-96.4998,4.0,4.875623037,75.02277817,5.89,'11111222,11111222,11111222' 
TABS,ioos:station:wmo:42045:1,2011-09-01T01:30:00Z,26.2168,-96.4998,4.0,5.083079775,67.31907251,5.98,'11111222,11111222,11111222' 
TABS,ioos:station:wmo:42045:1,2011-09-01T02:00:00Z,26.2168,-96.4998,4.0,5.274732221,74.38247318,6.09,'11111222,11111222,11111222' 
TABS,ioos:station:wmo:42045:1,2011-09-01T02:30:00Z,26.2168,-96.4998,4.0,5.677129556,82.61169975,6.85,'11111222,11111222,11111222' 
TABS,ioos:station:wmo:42045:1,2011-09-01T03:00:00Z,26.2168,-96.4998,4.0,5.553413365,80.67297003,6.6,'11111222,11111222,11111222' 
TABS,ioos:station:wmo:42045:1,2011-09-01T03:30:00Z,26.2168,-96.4998,4.0,5.804291516,83.76841201,6.89,'11111222,11111222,11111222' 
TABS,ioos:station:wmo:42045:1,2011-09-01T04:00:00Z,26.2168,-96.4998,4.0,5.622001423,88.47069885,6.81,'11111222,11111222,11111222' 
TABS,ioos:station:wmo:42045:1,2011-09-01T04:30:00Z,26.2168,-96.4998,4.0,5.962147264,88.46181029,7.22,'11111222,11111222,11111222' 
TABS,ioos:station:wmo:42045:1,2011-09-01T05:00:00Z,26.2168,-96.4998,4.0,6.93956771,96.12177403,7.98,'11111222,11111222,11111222' 
TABS,ioos:station:wmo:42045:1,2011-09-01T05:30:00Z,26.2168,-96.4998,4.0,6.567952497,103.7404233,7.62,'11111222,11111222,11111222' 
TABS,ioos:station:wmo:42045:1,2011-09-01T06:00:00Z,26.2168,-96.4998,4.0,6.568751784,102.2169903,7.54,'11111222,11111222,11111222' 
TABS,ioos:station:wmo:42045:1,2011-09-01T06:30:00Z,26.2168,-96.4998,4.0,6.003615577,109.7633334,7.41,'11111222,11111222,11111222' 
TABS,ioos:station:wmo:42045:1,2011-09-01T07:00:00Z,26.2168,-96.4998,4.0,5.505678886,108.8631437,6.34,'11111222,11111222,11111222' 
TABS,ioos:station:wmo:42045:1,2011-09-01T07:30:00Z,26.2168,-96.4998,4.0,5.819364226,144.3710527,7.44,'11111222,11111222,11111222' 
TABS,ioos:station:wmo:42045:1,2011-09-01T08:00:00Z,26.2168,-96.4998,4.0,5.270768445,113.5986214,6.54,'11111222,11111222,11111222' 
TABS,ioos:station:wmo:42045:1,2011-09-01T08:30:00Z,26.2168,-96.4998,4.0,5.902651946,118.6495479,7.11,'11111222,11111222,11111222' 
TABS,ioos:station:wmo:42045:1,2011-09-01T09:00:00Z,26.2168,-96.4998,4.0,7.6908062,194.0725584,8.99,'11111222,11111222,11111222' 
TABS,ioos:station:wmo:42045:1,2011-09-01T09:30:00Z,26.2168,-96.4998,4.0,6.259337026,204.845618,7.41,'11111222,11111222,11111222' 
TABS,ioos:station:wmo:42045:1,2011-09-01T10:00:00Z,26.2168,-96.4998,4.0,4.563693679,210.5548007,5.56,'11111222,11111222,11111222' 
TABS,ioos:station:wmo:42045:1,2011-09-01T10:30:00Z,26.2168,-96.4998,4.0,4.107456634,221.8421678,4.84,'11111222,11111222,11111222' 
TABS,ioos:station:wmo:42045:1,2011-09-01T11:00:00Z,26.2168,-96.4998,4.0,3.333136661,229.3801554,4.05,'11111222,11111222,11111222' 
TABS,ioos:station:wmo:42045:1,2011-09-01T11:30:00Z,26.2168,-96.4998,4.0,4.044613702,245.1457661,5.01,'11111222,11111222,11111222' 
TABS,ioos:station:wmo:42045:1,2011-09-01T12:00:00Z,26.2168,-96.4998,4.0,4.052221613,262.7697743,4.95,'11111222,11111222,11111222' 
TABS,ioos:station:wmo:42045:1,2011-09-01T12:30:00Z,26.2168,-96.4998,4.0,3.270061162,270.3504277,4.02,'11111222,11111222,11111222' 
TABS,ioos:station:wmo:42045:1,2011-09-01T13:00:00Z,26.2168,-96.4998,4.0,2.942872746,272.5318317,3.96,'11111222,11111222,11111222' 
TABS,ioos:station:wmo:42045:1,2011-09-01T13:30:00Z,26.2168,-96.4998,4.0,3.160569569,299.1601826,3.91,'11111222,11111222,11111222' 
TABS,ioos:station:wmo:42045:1,2011-09-01T14:00:00Z,26.2168,-96.4998,4.0,3.228002478,290.680643,3.91,'11111222,11111222,11111222' 
TABS,ioos:station:wmo:42045:1,2011-09-01T14:30:00Z,26.2168,-96.4998,4.0,3.15,306.8698114,4.27,'11111222,11111222,11111222' 
TABS,ioos:station:wmo:42045:1,2011-09-01T15:00:00Z,26.2168,-96.4998,4.0,3.435127363,324.5979203,4.29,'11111222,11111222,11111222' 
TABS,ioos:station:wmo:42045:1,2011-09-01T15:30:00Z,26.2168,-96.4998,4.0,3.948670662,320.342938,4.83,'11111222,11111222,11111222' 
TABS,ioos:station:wmo:42045:1,2011-09-01T16:00:00Z,26.2168,-96.4998,4.0,3.882022669,334.0288585,4.79,'11111222,11111222,11111222' 
TABS,ioos:station:wmo:42045:1,2011-09-01T16:30:00Z,26.2168,-96.4998,4.0,4.433384711,329.501553,5.37,'11111222,11111222,11111222' 
TABS,ioos:station:wmo:42045:1,2011-09-01T17:00:00Z,26.2168,-96.4998,4.0,4.046455239,338.6980133,4.67,'11111222,11111222,11111222' 
TABS,ioos:station:wmo:42045:1,2011-09-01T17:30:00Z,26.2168,-96.4998,4.0,4.196724914,338.3251911,4.9,'11111222,11111222,11111222' 
TABS,ioos:station:wmo:42045:1,2011-09-01T18:00:00Z,26.2168,-96.4998,4.0,4.422148799,344.9265247,5.46,'11111222,11111222,11111222' 
TABS,ioos:station:wmo:42045:1,2011-09-01T18:30:00Z,26.2168,-96.4998,4.0,4.175368247,11.60572492,6.49,'11111222,11111222,11111222' 
TABS,ioos:station:wmo:42045:1,2011-09-01T19:00:00Z,26.2168,-96.4998,4.0,4.34521576,9.939000364,6.04,'11111222,11111222,11111222' 
TABS,ioos:station:wmo:42045:1,2011-09-01T19:30:00Z,26.2168,-96.4998,4.0,3.418552325,349.3801591,4.27,'11111222,11111222,11111222' 
TABS,ioos:station:wmo:42045:1,2011-09-01T20:00:00Z,26.2168,-96.4998,4.0,4.718103433,63.43459003,6.34,'11111222,11111222,11111222' 
TABS,ioos:station:wmo:42045:1,2011-09-01T20:30:00Z,26.2168,-96.4998,4.0,3.949784804,66.42009334,5.19,'11111222,11111222,11111222' 
TABS,ioos:station:wmo:42045:1,2011-09-01T21:00:00Z,26.2168,-96.4998,4.0,2.884614359,58.89963922,3.59,'11111222,11111222,11111222' 
TABS,ioos:station:wmo:42045:1,2011-09-01T21:30:00Z,26.2168,-96.4998,4.0,3.403086834,19.3930832,3.98,'11111222,11111222,11111222' 
TABS,ioos:station:wmo:42045:1,2011-09-01T22:00:00Z,26.2168,-96.4998,4.0,3.720215048,36.2535425,4.34,'11111222,11111222,11111222' 
TABS,ioos:station:wmo:42045:1,2011-09-01T22:30:00Z,26.2168,-96.4998,4.0,4.498110715,40.31085221,5.46,'11111222,11111222,11111222' 
TABS,ioos:station:wmo:42045:1,2011-09-01T23:00:00Z,26.2168,-96.4998,4.0,4.415484118,55.98568625,5.39,'11111222,11111222,11111222' 
TABS,ioos:station:wmo:42045:1,2011-09-01T23:30:00Z,26.2168,-96.4998,4.0,4.313386141,48.2889193,5.02,'11111222,11111222,11111222' 
TABS,ioos:station:wmo:42045:1,2011-09-02T00:00:00Z,26.2168,-96.4998,4.0,4.304091077,53.50250358,4.9,'11111222,11111222,11111222' 
TABS,ioos:station:wmo:42045:1,2011-09-02T00:30:00Z,26.2168,-96.4998,4.0,4.641820763,54.73461376,5.41,'11111222,11111222,11111222' 
TABS,ioos:station:wmo:42045:1,2011-09-02T01:00:00Z,26.2168,-96.4998,4.0,4.832442447,61.57843632,5.82,'11111222,11111222,11111222' 
TABS,ioos:station:wmo:42045:1,2011-09-02T01:30:00Z,26.2168,-96.4998,4.0,4.405689503,51.54296441,5.17,'11111222,11111222,11111222' 
TABS,ioos:station:wmo:42045:1,2011-09-02T02:00:00Z,26.2168,-96.4998,4.0,3.766430671,56.47835464,4.85,'11111222,11111222,11111222' 
TABS,ioos:station:wmo:42045:1,2011-09-02T02:30:00Z,26.2168,-96.4998,4.0,4.462398458,59.12397428,5.49,'11111222,11111222,11111222' 
TABS,ioos:station:wmo:42045:1,2011-09-02T03:00:00Z,26.2168,-96.4998,4.0,4.761512365,58.04529087,6.02,'11111222,11111222,11111222' 
TABS,ioos:station:wmo:42045:1,2011-09-02T03:30:00Z,26.2168,-96.4998,4.0,4.78591684,57.80392044,5.71,'11111222,11111222,11111222' 
TABS,ioos:station:wmo:42045:1,2011-09-02T04:00:00Z,26.2168,-96.4998,4.0,4.571389286,55.33621429,5.36,'11111222,11111222,11111222' 
TABS,ioos:station:wmo:42045:1,2011-09-02T04:30:00Z,26.2168,-96.4998,4.0,5.024121814,61.85336646,6.04,'11111222,11111222,11111222' 
TABS,ioos:station:wmo:42045:1,2011-09-02T05:00:00Z,26.2168,-96.4998,4.0,4.624197228,63.54541319,5.44,'11111222,11111222,11111222' 
TABS,ioos:station:wmo:42045:1,2011-09-02T05:30:00Z,26.2168,-96.4998,4.0,3.783358297,58.62033999,4.51,'11111222,11111222,11111222' 
TABS,ioos:station:wmo:42045:1,2011-09-02T06:00:00Z,26.2168,-96.4998,4.0,3.053604428,48.58428645,3.71,'11111222,11111222,11111222' 
TABS,ioos:station:wmo:42045:1,2011-09-02T06:30:00Z,26.2168,-96.4998,4.0,3.028696089,58.77634681,3.66,'11111222,11111222,11111222' 
TABS,ioos:station:wmo:42045:1,2011-09-02T07:00:00Z,26.2168,-96.4998,4.0,0.62008064,359.0757463,0.97,'11111222,11144222,11111222' 
TABS,ioos:station:wmo:42045:1,2011-09-02T07:30:00Z,26.2168,-96.4998,4.0,1.228739191,326.9564511,1.63,'11111222,11111222,11111222' 
TABS,ioos:station:wmo:42045:1,2011-09-02T08:00:00Z,26.2168,-96.4998,4.0,1.861021225,303.6046004,2.69,'11111222,11111222,11111222' 
TABS,ioos:station:wmo:42045:1,2011-09-02T08:30:00Z,26.2168,-96.4998,4.0,2.755721321,291.7241407,3.31,'11111222,11111222,11111222' 
TABS,ioos:station:wmo:42045:1,2011-09-02T09:00:00Z,26.2168,-96.4998,4.0,3.196951673,284.8621149,3.9,'11111222,11111222,11111222' 
TABS,ioos:station:wmo:42045:1,2011-09-02T09:30:00Z,26.2168,-96.4998,4.0,3.863599358,283.9283094,4.92,'11111222,11111222,11111222' 
TABS,ioos:station:wmo:42045:1,2011-09-02T10:00:00Z,26.2168,-96.4998,4.0,5.484086068,282.2114798,6.53,'11111222,11111222,11111222' 
TABS,ioos:station:wmo:42045:1,2011-09-02T10:30:00Z,26.2168,-96.4998,4.0,6.929256814,301.7861889,8.6,'11111222,11111222,11111222' 
TABS,ioos:station:wmo:42045:1,2011-09-02T11:00:00Z,26.2168,-96.4998,4.0,6.378032612,300.9482779,7.88,'11111222,11111222,11111222' 
TABS,ioos:station:wmo:42045:1,2011-09-02T11:30:00Z,26.2168,-96.4998,4.0,6.579612451,286.1487035,8.02,'11111222,11111222,11111222' 
TABS,ioos:station:wmo:42045:1,2011-09-02T12:00:00Z,26.2168,-96.4998,4.0,7.023190158,277.6916637,8.16,'11111222,11111222,11111222' 
TABS,ioos:station:wmo:42045:1,2011-09-02T12:30:00Z,26.2168,-96.4998,4.0,6.941037386,299.519562,8.7,'11111222,11111222,11111222' 
TABS,ioos:station:wmo:42045:1,2011-09-02T13:00:00Z,26.2168,-96.4998,4.0,7.334255245,289.3489889,8.69,'11111222,11111222,11111222' 
TABS,ioos:station:wmo:42045:1,2011-09-02T13:30:00Z,26.2168,-96.4998,4.0,7.150174823,290.2089824,9.05,'11111222,11111222,11111222' 
TABS,ioos:station:wmo:42045:1,2011-09-02T14:00:00Z,26.2168,-96.4998,4.0,8.995849043,281.3473786,12.71,'11111222,11111222,11111222' 
TABS,ioos:station:wmo:42045:1,2011-09-02T14:30:00Z,26.2168,-96.4998,4.0,7.31413016,297.9664378,9.71,'11111222,11111222,11111222' 
TABS,ioos:station:wmo:42045:1,2011-09-02T15:00:00Z,26.2168,-96.4998,4.0,6.475561752,302.1928855,7.94,'11111222,11111222,11111222' 
TABS,ioos:station:wmo:42045:1,2011-09-02T15:30:00Z,26.2168,-96.4998,4.0,6.480871855,295.6951427,7.94,'11111222,11111222,11111222' 
TABS,ioos:station:wmo:42045:1,2011-09-02T16:00:00Z,26.2168,-96.4998,4.0,5.946192059,310.2249477,7.2,'11111222,11111222,11111222' 
TABS,ioos:station:wmo:42045:1,2011-09-02T16:30:00Z,26.2168,-96.4998,4.0,7.150860088,298.5720251,9.74,'11111222,11111222,11111222' 
TABS,ioos:station:wmo:42045:1,2011-09-02T17:00:00Z,26.2168,-96.4998,4.0,5.282319566,314.4630035,6.55,'11111222,11111222,11111222' 
TABS,ioos:station:wmo:42045:1,2011-09-02T17:30:00Z,26.2168,-96.4998,4.0,6.142719268,342.8628123,7.09,'11111222,11111222,11111222' 
TABS,ioos:station:wmo:42045:1,2011-09-02T18:00:00Z,26.2168,-96.4998,4.0,6.325764776,357.5535201,7.93,'11111222,11111222,11111222' 
TABS,ioos:station:wmo:42045:1,2011-09-02T18:30:00Z,26.2168,-96.4998,4.0,6.789698079,9.323359517,8.66,'11111222,11111222,11111222' 
TABS,ioos:station:wmo:42045:1,2011-09-02T19:00:00Z,26.2168,-96.4998,4.0,6.968536432,23.51141365,9.28,'11111222,11111222,11111222' 
TABS,ioos:station:wmo:42045:1,2011-09-02T19:30:00Z,26.2168,-96.4998,4.0,7.186793444,31.92059112,9.31,'11111222,11111222,11111222' 
TABS,ioos:station:wmo:42045:1,2011-09-02T20:00:00Z,26.2168,-96.4998,4.0,6.866039615,25.44513654,8.41,'11111222,11111222,11111222' 
TABS,ioos:station:wmo:42045:1,2011-09-02T20:30:00Z,26.2168,-96.4998,4.0,6.798543962,32.87165862,8.33,'11111222,11111222,11111222' 
TABS,ioos:station:wmo:42045:1,2011-09-02T21:00:00Z,26.2168,-96.4998,4.0,6.386939799,22.75071268,8.48,'11111222,11111222,11111222' 
TABS,ioos:station:wmo:42045:1,2011-09-02T21:30:00Z,26.2168,-96.4998,4.0,6.881860214,35.53738423,8.69,'11111222,11111222,11111222' 
TABS,ioos:station:wmo:42045:1,2011-09-02T22:00:00Z,26.2168,-96.4998,4.0,7.563187159,35.85441807,8.98,'11111222,11111222,11111222' 
TABS,ioos:station:wmo:42045:1,2011-09-02T22:30:00Z,26.2168,-96.4998,4.0,7.105920067,38.77283929,8.72,'11111222,11111222,11111222' 
TABS,ioos:station:wmo:42045:1,2011-09-02T23:00:00Z,26.2168,-96.4998,4.0,6.77366223,40.50924289,9.04,'11111222,11111222,11111222' 
TABS,ioos:station:wmo:42045:1,2011-09-02T23:30:00Z,26.2168,-96.4998,4.0,7.231355336,37.97892158,8.76,'11111222,11111222,11111222' 
TABS,ioos:station:wmo:42045:1,2011-09-03T00:00:00Z,26.2168,-96.4998,4.0,7.800160255,53.4970424,9.35,'11111222,11111222,11111222' 
TABS,ioos:station:wmo:42045:1,2011-09-03T00:30:00Z,26.2168,-96.4998,4.0,7.203471385,50.51998818,8.55,'11111222,11111222,11111222' 
TABS,ioos:station:wmo:42045:1,2011-09-03T01:00:00Z,26.2168,-96.4998,4.0,6.72000744,53.04450634,8.37,'11111222,11111222,11111222' 
TABS,ioos:station:wmo:42045:1,2011-09-03T01:30:00Z,26.2168,-96.4998,4.0,6.962018385,52.9980916,8.35,'11111222,11111222,11111222' 
TABS,ioos:station:wmo:42045:1,2011-09-03T02:00:00Z,26.2168,-96.4998,4.0,6.093217541,42.67187467,7.68,'11111222,11111222,11111222' 
TABS,ioos:station:wmo:42045:1,2011-09-03T02:30:00Z,26.2168,-96.4998,4.0,5.978360979,51.51947082,7.38,'11111222,11111222,11111222' 
TABS,ioos:station:wmo:42045:1,2011-09-03T03:00:00Z,26.2168,-96.4998,4.0,6.434477446,50.99219775,7.79,'11111222,11111222,11111222' 
TABS,ioos:station:wmo:42045:1,2011-09-03T03:30:00Z,26.2168,-96.4998,4.0,7.381470043,50.55188363,8.97,'11111222,11111222,11111222' 
TABS,ioos:station:wmo:42045:1,2011-09-03T04:00:00Z,26.2168,-96.4998,4.0,7.244894754,55.62962034,9.08,'11111222,11111222,11111222' 
TABS,ioos:station:wmo:42045:1,2011-09-03T04:30:00Z,26.2168,-96.4998,4.0,6.936490467,62.99130568,8.44,'11111222,11111222,11111222' 
TABS,ioos:station:wmo:42045:1,2011-09-03T05:00:00Z,26.2168,-96.4998,4.0,6.401327987,58.02273353,7.65,'11111222,11111222,11111222' 
TABS,ioos:station:wmo:42045:1,2011-09-03T05:30:00Z,26.2168,-96.4998,4.0,5.468528138,53.92607136,6.75,'11111222,11111222,11111222' 
TABS,ioos:station:wmo:42045:1,2011-09-03T06:00:00Z,26.2168,-96.4998,4.0,4.582684803,49.60179502,5.76,'11111222,11111222,11111222' 
TABS,ioos:station:wmo:42045:1,2011-09-03T06:30:00Z,26.2168,-96.4998,4.0,3.084736618,57.44298942,4.0,'11111222,11111222,11111222' 
TABS,ioos:station:wmo:42045:1,2011-09-03T07:00:00Z,26.2168,-96.4998,4.0,2.054190838,36.08859868,2.87,'11111222,11111222,11111222' 
TABS,ioos:station:wmo:42045:1,2011-09-03T07:30:00Z,26.2168,-96.4998,4.0,2.390836674,33.22451065,3.12,'11111222,11111222,11111222' 
TABS,ioos:station:wmo:42045:1,2011-09-03T08:00:00Z,26.2168,-96.4998,4.0,2.55,359.9997895,3.57,'11111222,11144222,11111222' 
TABS,ioos:station:wmo:42045:1,2011-09-03T08:30:00Z,26.2168,-96.4998,4.0,2.953675676,342.0556268,3.94,'11111222,11111222,11111222' 
TABS,ioos:station:wmo:42045:1,2011-09-03T09:00:00Z,26.2168,-96.4998,4.0,3.519786925,342.1311296,4.37,'11111222,11111222,11111222' 
TABS,ioos:station:wmo:42045:1,2011-09-03T09:30:00Z,26.2168,-96.4998,4.0,3.005278689,314.5954616,3.87,'11111222,11111222,11111222' 
TABS,ioos:station:wmo:42045:1,2011-09-03T10:00:00Z,26.2168,-96.4998,4.0,3.412638276,307.9779712,4.2,'11111222,11111222,11111222' 
TABS,ioos:station:wmo:42045:1,2011-09-03T10:30:00Z,26.2168,-96.4998,4.0,4.378241656,306.2678236,5.53,'11111222,11111222,11111222' 
TABS,ioos:station:wmo:42045:1,2011-09-03T11:00:00Z,26.2168,-96.4998,4.0,4.109622854,291.2576746,4.99,'11111222,11111222,11111222' 
TABS,ioos:station:wmo:42045:1,2011-09-03T11:30:00Z,26.2168,-96.4998,4.0,4.490545624,288.8383895,5.52,'11111222,11111222,11111222' 
TABS,ioos:station:wmo:42045:1,2011-09-03T12:00:00Z,26.2168,-96.4998,4.0,4.607211738,286.389502,5.59,'11111222,11111222,11111222' 
TABS,ioos:station:wmo:42045:1,2011-09-03T12:30:00Z,26.2168,-96.4998,4.0,5.105389309,284.1723046,5.98,'11111222,11111222,11111222' 
TABS,ioos:station:wmo:42045:1,2011-09-03T13:00:00Z,26.2168,-96.4998,4.0,5.181167822,271.2165201,6.41,'11111222,11111222,11111222' 
TABS,ioos:station:wmo:42045:1,2011-09-03T13:30:00Z,26.2168,-96.4998,4.0,6.14377734,275.0424393,7.19,'11111222,11111222,11111222' 
TABS,ioos:station:wmo:42045:1,2011-09-03T14:00:00Z,26.2168,-96.4998,4.0,6.462584622,279.7100792,7.51,'11111222,11111222,11111222' 
TABS,ioos:station:wmo:42045:1,2011-09-03T14:30:00Z,26.2168,-96.4998,4.0,6.613962504,283.9101478,7.98,'11111222,11111222,11111222' 
TABS,ioos:station:wmo:42045:1,2011-09-03T15:00:00Z,26.2168,-96.4998,4.0,6.38846617,276.2906561,7.71,'11111222,11111222,11111222' 
TABS,ioos:station:wmo:42045:1,2011-09-03T15:30:00Z,26.2168,-96.4998,4.0,6.766720033,279.6989426,8.28,'11111222,11111222,11111222' 
TABS,ioos:station:wmo:42045:1,2011-09-03T16:00:00Z,26.2168,-96.4998,4.0,6.900586932,270.7472921,8.29,'11111222,11111222,11111222' 
TABS,ioos:station:wmo:42045:1,2011-09-03T16:30:00Z,26.2168,-96.4998,4.0,7.240165744,274.2773062,8.65,'11111222,11111222,11111222' 
TABS,ioos:station:wmo:42045:1,2011-09-03T17:00:00Z,26.2168,-96.4998,4.0,7.242237223,287.6843507,8.7,'11111222,11111222,11111222' 
TABS,ioos:station:wmo:42045:1,2011-09-03T17:30:00Z,26.2168,-96.4998,4.0,6.488204682,291.8997482,7.97,'11111222,11111222,11111222' 
TABS,ioos:station:wmo:42045:1,2011-09-03T18:00:00Z,26.2168,-96.4998,4.0,6.40003125,292.7988604,7.64,'11111222,11111222,11111222' 
TABS,ioos:station:wmo:42045:1,2011-09-03T18:30:00Z,26.2168,-96.4998,4.0,6.05013223,292.2410034,7.65,'11111222,11111222,11111222' 
TABS,ioos:station:wmo:42045:1,2011-09-03T19:00:00Z,26.2168,-96.4998,4.0,5.788929089,290.8456007,6.84,'11111222,11111222,11111222' 
TABS,ioos:station:wmo:42045:1,2011-09-03T19:30:00Z,26.2168,-96.4998,4.0,5.663656063,290.3547114,6.75,'11111222,11111222,11111222' 
TABS,ioos:station:wmo:42045:1,2011-09-03T20:00:00Z,26.2168,-96.4998,4.0,4.682413907,300.1242476,5.57,'11111222,11111222,11111222' 
TABS,ioos:station:wmo:42045:1,2011-09-03T20:30:00Z,26.2168,-96.4998,4.0,3.879819583,294.5172282,4.85,'11111222,11111222,11111222' 
TABS,ioos:station:wmo:42045:1,2011-09-03T21:00:00Z,26.2168,-96.4998,4.0,3.002615527,348.2782302,3.61,'11111222,11111222,11111222' 
TABS,ioos:station:wmo:42045:1,2011-09-03T21:30:00Z,26.2168,-96.4998,4.0,2.314584196,15.53711485,3.07,'11111222,11111222,11111222' 
TABS,ioos:station:wmo:42045:1,2011-09-03T22:00:00Z,26.2168,-96.4998,4.0,2.498979792,34.07131967,3.11,'11111222,11111222,11111222' 
TABS,ioos:station:wmo:42045:1,2011-09-03T22:30:00Z,26.2168,-96.4998,4.0,2.507847683,70.91443545,3.09,'11111222,11111222,11111222' 
TABS,ioos:station:wmo:42045:1,2011-09-03T23:00:00Z,26.2168,-96.4998,4.0,3.012125495,95.14317345,3.65,'11111222,11111222,11111222' 
TABS,ioos:station:wmo:42045:1,2011-09-03T23:30:00Z,26.2168,-96.4998,4.0,2.667170786,139.562113,3.23,'11111222,11111222,11111222' 
TABS,ioos:station:wmo:42045:1,2011-09-04T00:00:00Z,26.2168,-96.4998,4.0,3.430014577,149.3230022,4.16,'11111222,11111222,11111222' 
TABS,ioos:station:wmo:42045:1,2011-09-04T00:30:00Z,26.2168,-96.4998,4.0,4.535570526,162.683906,5.1,'11111222,11111222,11111222' 
TABS,ioos:station:wmo:42045:1,2011-09-04T01:00:00Z,26.2168,-96.4998,4.0,4.757320674,167.249357,5.52,'11111222,11111222,11111222' 
TABS,ioos:station:wmo:42045:1,2011-09-04T01:30:00Z,26.2168,-96.4998,4.0,5.760034722,175.2200587,6.76,'11111222,11111222,11111222' 
TABS,ioos:station:wmo:42045:1,2011-09-04T02:00:00Z,26.2168,-96.4998,4.0,5.71787548,176.9926966,6.58,'11111222,11111222,11111222' 
TABS,ioos:station:wmo:42045:1,2011-09-04T02:30:00Z,26.2168,-96.4998,4.0,6.544807102,183.8550396,7.73,'11111222,11111222,11111222' 
TABS,ioos:station:wmo:42045:1,2011-09-04T03:00:00Z,26.2168,-96.4998,4.0,7.028655632,188.015011,8.26,'11111222,11111222,11111222' 
TABS,ioos:station:wmo:42045:1,2011-09-04T03:30:00Z,26.2168,-96.4998,4.0,7.326936604,191.494149,8.43,'11111222,11111222,11111222' 
TABS,ioos:station:wmo:42045:1,2011-09-04T04:00:00Z,26.2168,-96.4998,4.0,7.431392871,194.3356124,8.88,'11111222,11111222,11111222' 
TABS,ioos:station:wmo:42045:1,2011-09-04T04:30:00Z,26.2168,-96.4998,4.0,8.543939372,197.0141531,10.09,'11111222,11111222,11111222' 
TABS,ioos:station:wmo:42045:1,2011-09-04T05:00:00Z,26.2168,-96.4998,4.0,8.569229837,199.8518847,10.1,'11111222,11111222,11111222' 
TABS,ioos:station:wmo:42045:1,2011-09-04T05:30:00Z,26.2168,-96.4998,4.0,9.001710948,199.60261,10.72,'11111222,11111222,11111222' 
TABS,ioos:station:wmo:42045:1,2011-09-04T06:00:00Z,26.2168,-96.4998,4.0,8.144114439,203.8269228,9.93,'11111222,11111222,11111222' 
TABS,ioos:station:wmo:42045:1,2011-09-04T06:30:00Z,26.2168,-96.4998,4.0,7.486788364,207.181258,9.89,'11111222,11111222,11111222' 
TABS,ioos:station:wmo:42045:1,2011-09-04T07:00:00Z,26.2168,-96.4998,4.0,6.639073731,215.1264794,8.97,'11111222,11111222,11111222' 
TABS,ioos:station:wmo:42045:1,2011-09-04T07:30:00Z,26.2168,-96.4998,4.0,7.218046827,216.6636378,8.66,'11111222,11111222,11111222' 
TABS,ioos:station:wmo:42045:1,2011-09-04T08:00:00Z,26.2168,-96.4998,4.0,6.802301081,216.3309432,7.99,'11111222,11111222,11111222' 
TABS,ioos:station:wmo:42045:1,2011-09-04T08:30:00Z,26.2168,-96.4998,4.0,6.254038695,217.0715727,7.97,'11111222,11111222,11111222' 
TABS,ioos:station:wmo:42045:1,2011-09-04T09:00:00Z,26.2168,-96.4998,4.0,6.112487219,219.8896996,7.27,'11111222,11111222,11111222' 
TABS,ioos:station:wmo:42045:1,2011-09-04T09:30:00Z,26.2168,-96.4998,4.0,5.438694696,221.8698677,6.7,'11111222,11111222,11111222' 
TABS,ioos:station:wmo:42045:1,2011-09-04T10:00:00Z,26.2168,-96.4998,4.0,4.641820763,215.2651758,5.49,'11111222,11111222,11111222' 
TABS,ioos:station:wmo:42045:1,2011-09-04T10:30:00Z,26.2168,-96.4998,4.0,5.079862203,210.6544005,6.0,'11111222,11111222,11111222' 
TABS,ioos:station:wmo:42045:1,2011-09-04T11:00:00Z,26.2168,-96.4998,4.0,5.040991966,209.209301,5.82,'11111222,11111222,11111222' 
TABS,ioos:station:wmo:42045:1,2011-09-04T11:30:00Z,26.2168,-96.4998,4.0,5.424131267,204.3916556,6.2,'11111222,11111222,11111222' 
TABS,ioos:station:wmo:42045:1,2011-09-04T12:00:00Z,26.2168,-96.4998,4.0,5.079616127,212.3761658,5.92,'11111222,11111222,11111222' 
TABS,ioos:station:wmo:42045:1,2011-09-04T12:30:00Z,26.2168,-96.4998,4.0,4.55554607,226.6011195,5.51,'11111222,11111222,11111222' 
TABS,ioos:station:wmo:42045:1,2011-09-04T13:00:00Z,26.2168,-96.4998,4.0,4.454256391,243.3199596,5.44,'11111222,11111222,11111222' 
TABS,ioos:station:wmo:42045:1,2011-09-04T13:30:00Z,26.2168,-96.4998,4.0,4.557422517,244.1097077,5.56,'11111222,11111222,11111222' 
TABS,ioos:station:wmo:42045:1,2011-09-04T14:00:00Z,26.2168,-96.4998,4.0,4.605257865,248.3372597,5.45,'11111222,11111222,11111222' 
TABS,ioos:station:wmo:42045:1,2011-09-04T14:30:00Z,26.2168,-96.4998,4.0,5.417767068,244.9959428,6.22,'11111222,11111222,11111222' 
TABS,ioos:station:wmo:42045:1,2011-09-04T15:00:00Z,26.2168,-96.4998,4.0,5.53564811,272.5884566,6.62,'11111222,11111222,11111222' 
TABS,ioos:station:wmo:42045:1,2011-09-04T15:30:00Z,26.2168,-96.4998,4.0,4.835255939,262.1548005,5.73,'11111222,11111222,11111222' 
TABS,ioos:station:wmo:42045:1,2011-09-04T16:00:00Z,26.2168,-96.4998,4.0,4.509212792,256.7958892,5.4,'11111222,11111222,11111222' 
TABS,ioos:station:wmo:42045:1,2011-09-04T16:30:00Z,26.2168,-96.4998,4.0,4.711061452,268.7837147,5.59,'11111222,11111222,11111222' 
TABS,ioos:station:wmo:42045:1,2011-09-04T17:00:00Z,26.2168,-96.4998,4.0,5.086393614,283.2985392,6.0,'11111222,11111222,11111222' 
TABS,ioos:station:wmo:42045:1,2011-09-04T17:30:00Z,26.2168,-96.4998,4.0,5.618051264,290.8544093,6.65,'11111222,11111222,11111222' 
TABS,ioos:station:wmo:42045:1,2011-09-04T18:00:00Z,26.2168,-96.4998,4.0,6.562499524,315.7407454,7.85,'11111222,11111222,11111222' 
TABS,ioos:station:wmo:42045:1,2011-09-04T18:30:00Z,26.2168,-96.4998,4.0,6.968966925,310.8687261,8.76,'11111222,11111222,11111222' 